Location: La Trinit�
(48.1620°N, 3.4512°W)
Time: 04:01:24
(UTC+00:00)

USA 307 - Pass Details

Date: 08 May 2021
Orbit: 566 x 577 km, 54.0° (Epoch: 10 May)

Event Time Altitude Azimuth Distance (km) Brightness Sun altitude
Rises 22:40:42 0° 299° (WNW) 2,779 7.2 -21.5°
Reaches altitude 10° 22:42:57 10° 298° (WNW) 1,881 6.2 -21.6°
Maximum altitude 22:47:14 81° 212° (SSW) 585 2.8 -21.9°
Enters shadow 22:47:31 75° 158° (SSE) 597 2.7 -21.9°
